sat.trackr.live / text

‹ back to catalog

JACK-002

NORAD 68417 · 2026-067B

PAYLOAD ACTIVE UNKNOWN

§ Identity

Operator
Country
SKOR
Launch date
2026-03-30
Launch site
AFWTR
Launch vehicle
Mass (kg)
RCS (m²)

External: N2YO · Heavens-Above · Gunter

§ Orbital elements

Epoch: 2026-09-19T15:14:28.802976Z

Period
94.71 min
Inclination
97.4671°
Eccentricity
0.0001318
Mean motion
15.20404539 rev/d
Perigee alt
503.7 km
Apogee alt
505.5 km
Semi-major
6,882.8 km
B*
2.2676e-4
RAAN
220.1781°
Arg perigee
19.7204°
Mean anomaly
340.4082°
Rev number
2,629

§ Raw data

JACK-0021 68417U 26067B   26262.63505559  .00004873  00000+0  22676-3 0  99902 68417  97.4671 220.1781 0001318  19.7204 340.4082 15.20404539 26292

JSON: /api/v1/satellites/68417 · /tle

For live sub-satellite position, see the globe view (requires WebGL).

§ Visibility from observer

Set your observer location to see the next 7 days of passes ≥ 10°. The values pass through the URL so the page stays shareable.

No JS? Fill the form by hand. The geolocation button needs JavaScript.

§ Radio — SatNOGS DB

ModeDescriptionDownlinkUplink
FSK Mode U - FSK9k6 - Transmitter 436.300 MHz

1 transmitter · refreshed weekly from db.satnogs.org